sat.trackr.live / text

‹ back to catalog

STARLINK-2380

NORAD 47799 · 2021-018N

PAYLOAD ACTIVE UNKNOWN

§ Identity

Operator
Country
US
Launch date
2021-03-11
Launch site
AFETR
Launch vehicle
Mass (kg)
RCS (m²)

Purposes: comms

External: N2YO · Heavens-Above · Gunter

§ Orbital elements

Epoch: 2026-09-09T21:17:41.308224Z

Period
94.01 min
Inclination
53.1605°
Eccentricity
0.0001259
Mean motion
15.31717656 rev/d
Perigee alt
469.8 km
Apogee alt
471.5 km
Semi-major
6,848.8 km
B*
2.6635e-6
RAAN
94.9417°
Arg perigee
86.3397°
Mean anomaly
273.7749°
Rev number
30,508

§ Raw data

STARLINK-23801 47799U 21018N   26252.88728366 -.00000283  00000+0  26635-5 0  99932 47799  53.1605  94.9417 0001259  86.3397 273.7749 15.31717656305082

JSON: /api/v1/satellites/47799 · /tle

For live sub-satellite position, see the globe view (requires WebGL).

§ Visibility from observer

Set your observer location to see the next 7 days of passes ≥ 10°. The values pass through the URL so the page stays shareable.

No JS? Fill the form by hand. The geolocation button needs JavaScript.